TimeMDT,TemperatureF,Dew PointF,Humidity,Sea Level PressureIn,VisibilityMPH,Wind Direction,Wind SpeedMPH,Gust SpeedMPH,PrecipitationIn,Events,Conditions,WindDirDegrees,DateUTC
12:53 AM,35.1,32.0,89,30.18,10.0,NE,5.8,-,N/A,,Overcast,50,2012-11-03 06:53:00
1:53 AM,36.0,33.1,89,30.17,9.0,ENE,9.2,-,N/A,,Overcast,70,2012-11-03 07:53:00
2:53 AM,35.1,33.1,92,30.17,8.0,East,8.1,-,N/A,,Overcast,80,2012-11-03 08:53:00
3:53 AM,35.1,33.1,92,30.16,7.0,East,11.5,-,N/A,,Overcast,80,2012-11-03 09:53:00
4:13 AM,35.6,33.8,93,30.09,5.0,ENE,9.2,-,N/A,,Overcast,70,2012-11-03 10:13:00
4:49 AM,33.8,33.8,100,30.09,2.5,East,9.2,-,N/A,,Overcast,80,2012-11-03 10:49:00
4:53 AM,34.0,33.1,96,30.16,3.0,ENE,10.4,-,N/A,,Overcast,70,2012-11-03 10:53:00
5:53 AM,34.0,33.1,96,30.17,4.0,East,5.8,-,N/A,,Overcast,80,2012-11-03 11:53:00
6:07 AM,33.8,33.8,100,30.10,2.0,East,5.8,-,N/A,,Overcast,90,2012-11-03 12:07:00
6:16 AM,33.8,33.8,100,30.10,1.5,East,6.9,-,N/A,,Overcast,80,2012-11-03 12:16:00
6:25 AM,33.8,33.8,100,30.10,1.2,East,5.8,-,N/A,,Overcast,80,2012-11-03 12:25:00
6:49 AM,33.8,33.8,100,30.10,0.8,Calm,Calm,-,N/A,,Mist,0,2012-11-03 12:49:00
6:53 AM,34.0,34.0,100,30.17,0.8,Calm,Calm,-,N/A,,Mist,0,2012-11-03 12:53:00
7:53 AM,34.0,34.0,100,30.16,0.5,East,3.5,-,N/A,Fog,Fog,90,2012-11-03 13:53:00
8:33 AM,33.8,33.8,100,30.09,0.2,Calm,Calm,-,N/A,Fog,Fog,0,2012-11-03 14:33:00
8:53 AM,34.0,33.1,96,30.16,0.2,East,3.5,-,N/A,Fog,Fog,80,2012-11-03 14:53:00
9:21 AM,33.8,33.8,100,30.09,0.5,NE,4.6,-,N/A,Fog,Fog,50,2012-11-03 15:21:00
9:53 AM,34.0,33.1,96,30.16,0.8,NE,3.5,-,N/A,,Overcast,40,2012-11-03 15:53:00
10:25 AM,35.6,33.8,93,30.08,1.5,East,4.6,-,N/A,,Overcast,80,2012-11-03 16:25:00
10:41 AM,35.6,33.8,93,30.08,3.0,ENE,3.5,-,N/A,,Overcast,60,2012-11-03 16:41:00
10:53 AM,35.1,34.0,96,30.15,4.0,ENE,5.8,-,N/A,,Overcast,70,2012-11-03 16:53:00
11:34 AM,35.6,33.8,93,30.09,1.8,East,5.8,-,N/A,,Overcast,80,2012-11-03 17:34:00
11:53 AM,36.0,34.0,93,30.14,2.5,East,4.6,-,N/A,,Overcast,80,2012-11-03 17:53:00
12:00 PM,35.6,33.8,93,30.07,4.0,ENE,8.1,-,N/A,,Overcast,70,2012-11-03 18:00:00
12:53 PM,35.1,33.1,92,30.13,10.0,East,5.8,-,N/A,,Overcast,80,2012-11-03 18:53:00
1:53 PM,39.0,36.0,89,30.09,10.0,NE,6.9,-,N/A,,Overcast,50,2012-11-03 19:53:00
2:21 PM,41.0,37.4,87,30.01,10.0,ENE,6.9,-,N/A,,Scattered Clouds,70,2012-11-03 20:21:00
2:53 PM,42.1,37.0,82,30.07,10.0,ENE,5.8,-,N/A,,Clear,70,2012-11-03 20:53:00
3:53 PM,45.0,37.9,76,30.05,10.0,ENE,8.1,-,N/A,,Clear,70,2012-11-03 21:53:00
4:53 PM,44.1,37.9,79,30.03,10.0,East,10.4,-,N/A,,Clear,80,2012-11-03 22:53:00
5:53 PM,43.0,37.9,82,30.02,10.0,ENE,5.8,-,N/A,,Clear,70,2012-11-03 23:53:00
6:53 PM,41.0,37.0,86,30.02,10.0,East,4.6,-,N/A,,Clear,100,2012-11-04 00:53:00
7:53 PM,41.0,37.0,86,30.02,10.0,ENE,4.6,-,N/A,,Overcast,60,2012-11-04 01:53:00
8:53 PM,39.9,37.9,93,30.04,10.0,ESE,3.5,-,0.00,Rain,Light Rain,120,2012-11-04 02:53:00
9:53 PM,41.0,39.0,93,30.00,10.0,SSW,5.8,-,0.01,,Overcast,200,2012-11-04 03:53:00
10:53 PM,46.0,39.0,76,29.99,10.0,WSW,12.7,-,N/A,,Clear,240,2012-11-04 04:53:00
11:53 PM,46.0,39.0,76,29.98,10.0,SW,10.4,-,N/A,,Mostly Cloudy,230,2012-11-04 05:53:00